Regional Weather Roundup
Issued by NWS Cleveland, OH

Home | Current Version | Previous Version | Text Only | Print | Product List | Glossary On
Versions: 1 2 3 4 5 6 7 8 9 10 11 12 13 14 15 16 17 18 19 20 21 22 23 24 25 26 27 28 29 30 31 32 33 34 35 36 37 38 39 40 41 42 43 44 45 46 47 48 49 50
000
ASUS41 KCLE 272102
RWRCLE
OHIO REGIONAL WEATHER ROUNDUP
NATIONAL WEATHER SERVICE CLEVELAND, OH
500 PM EDT THU JUL 27 2017

NOTE: "FAIR" INDICATES FEW OR NO CLOUDS BELOW 12,000 FEET WITH NO
SIGNIFICANT WEATHER AND/OR OBSTRUCTIONS TO VISIBILITY.

OHZ001>008-015>018-024>027-034-035-043-044-272200-
   NORTHWEST OHIO

CITY           SKY/WX    TMP DP  RH WIND       PRES   REMARKS
DEFIANCE       MOSUNNY   82  71  69 SE5       29.87F
FINDLAY        CLOUDY    81  69  67 E12       29.87S
TOLEDO EXPRESS CLOUDY    85  68  56 NE10      29.87F
TOLEDO EXEC    SUNNY     83  66  56 E8        29.88F
LIMA           PTSUNNY   80  71  74 W3        29.88S
$$

OHZ009>014-019>023-028>033-038-089-272200-
   NORTHEAST OHIO

CITY           SKY/WX    TMP DP  RH WIND       PRES   REMARKS
CLE-HOPKINS    CLOUDY    83  65  54 N10       29.91S
CLE-LAKEFRONT  SUNNY     80  68  66 N12       29.89S
CUY CO. ARPT   MOSUNNY   82  64  54 NE12      29.91S
LORAIN-ELYRIA  PTSUNNY   80  62  54 N7        29.90S
ASHTABULA      SUNNY     81  66  60 N9        29.91F
AKRON-CANTON   PTSUNNY   85  67  54 W6        29.90S
WOOSTER        CLOUDY    81  68  64 CALM      29.90F
MANSFIELD      CLOUDY    74  71  91 N8        29.91S
YOUNGSTOWN     MOSUNNY   84  62  47 W5        29.90F
$$

OHZ042-051>053-060>062-070>072-077>081-272200-
  SOUTHWEST OHIO

CITY           SKY/WX    TMP DP  RH WIND       PRES   REMARKS
CINC-COVINGTON CLOUDY    84  71  65 NW17      29.90F
CINC-LUNKEN    CLOUDY    83  71  67 W13       29.88F
HAMILTON       LGT RAIN  79  74  84 NW7       29.90F
DAYTON         CLOUDY    78  71  79 NW7       29.90F
WRIGHT-PAT AFB PTSUNNY   77  77 100 SW7       29.88F
DAYTON GENERAL CLOUDY    75  72  90 W7        29.89F
WILMINGTON     LGT RAIN  74  74 100 W8        29.90F FOG
$$

OHZ036-037-039>041-045>050-054>059-063>069-073>076-082>088-272200-
  CENTRAL AND SOUTHEAST OHIO

CITY           SKY/WX    TMP DP  RH WIND       PRES   REMARKS
COLUMBUS       LGT RAIN  73  73 100 SE5       29.88F FOG
OSU AIRPORT    LGT RAIN  73  73 100 E7        29.88F FOG
BOLTON FIELD   CLOUDY    75  73  94 W6        29.89F
RICKENBACK AFB CLOUDY    73  73  99 SW7       29.88F
NEWARK         CLOUDY    74  70  87 S7        29.90F
MARION         CLOUDY    78  68  71 SW7       29.89F
LANCASTER      CLOUDY    72  70  93 SE8       29.90F
ZANESVILLE     RAIN      73  70  90 S8        29.92F FOG
NEW PHILLY     NOT AVBL
$$




USA.gov is the U.S. government's official web portal to all federal, state and local government web resources and services.